| time (UTC) | temp F | wind direction | speed MPH | gust MPH | rain 1hr in | rain 24hr in | rain mn in | humidity % | barometer mb |
| 20260503223853 | 56 | 192 | 0.0 | 3.0 | 0.00 | 0.00 | 0.00 | 48 | 1013.7 |
| 20260503223314 | 57 | 250 | 0.0 | 1.0 | 0.00 | 0.00 | 0.00 | 48 | 1013.7 |
| 20260503222816 | 57 | 232 | 0.0 | 4.0 | 0.00 | 0.00 | 0.00 | 47 | 1013.7 |
| 20260503222320 | 57 | 270 | 0.0 | 4.0 | 0.00 | 0.00 | 0.00 | 46 | 1013.8 |
| 20260503221820 | 57 | 244 | 0.0 | 0.0 | 0.00 | 0.00 | 0.00 | 47 | 1013.9 |
| 20260503221322 | 57 | 222 | 0.0 | 1.0 | 0.00 | 0.00 | 0.00 | 46 | 1014.0 |
| 20260503220911 | 56 | 224 | 0.0 | 7.0 | 0.00 | 0.00 | 0.00 | 47 | 1014.0 |
| 20260503212312 | 57 | 237 | 0.0 | 4.0 | 0.00 | 0.00 | 0.00 | 44 | 1013.6 |
| 20260503211815 | 58 | 252 | 0.0 | 7.0 | 0.00 | 0.00 | 0.00 | 46 | 1013.6 |
| 20260503211317 | 58 | 215 | 0.0 | 3.0 | 0.00 | 0.00 | 0.00 | 44 | 1013.7 |
| 20260503210818 | 58 | 286 | 0.0 | 3.0 | 0.00 | 0.00 | 0.00 | 46 | 1013.6 |
| 20260503210319 | 58 | 252 | 0.0 | 8.0 | 0.00 | 0.00 | 0.00 | 45 | 1013.7 |
| 20260503205821 | 57 | 206 | 1.0 | 8.0 | 0.00 | 0.00 | 0.00 | 44 | 1013.9 |
| 20260503205323 | 57 | 261 | 0.0 | 7.0 | 0.00 | 0.00 | 0.00 | 48 | 1013.9 |
| 20260503204823 | 57 | 252 | 0.0 | 1.0 | 0.00 | 0.00 | 0.00 | 45 | 1014.0 |
| 20260503204345 | 57 | 201 | 0.0 | 10.0 | 0.00 | 0.00 | 0.00 | 47 | 1014.1 |
| 20260503203844 | 57 | 275 | 1.0 | 10.0 | 0.00 | 0.00 | 0.00 | 46 | 1014.1 |
| 20260503203325 | 57 | 280 | 0.0 | 5.0 | 0.00 | 0.00 | 0.00 | 47 | 1014.2 |
| 20260503202827 | 57 | 208 | 0.0 | 3.0 | 0.00 | 0.00 | 0.00 | 49 | 1014.1 |
| 20260503202329 | 56 | 262 | 0.0 | 5.0 | 0.00 | 0.00 | 0.00 | 49 | 1014.2 |
| 20260503201830 | 56 | 193 | 0.0 | 7.0 | 0.00 | 0.00 | 0.00 | 47 | 1014.2 |
| 20260503201331 | 56 | 240 | 0.0 | 9.0 | 0.00 | 0.00 | 0.00 | 46 | 1014.3 |
| 20260503200852 | 57 | 218 | 0.0 | 3.0 | 0.00 | 0.00 | 0.00 | 48 | 1014.3 |
| 20260503200331 | 57 | 236 | 0.0 | 11.0 | 0.00 | 0.00 | 0.00 | 47 | 1014.3 |
| 20260503195813 | 57 | 225 | 1.0 | 11.0 | 0.00 | 0.00 | 0.00 | 48 | 1014.3 |
| 20260503195314 | 58 | 248 | 0.0 | 9.0 | 0.00 | 0.00 | 0.00 | 48 | 1014.4 |
| 20260503194814 | 58 | 171 | 0.0 | 2.0 | 0.00 | 0.00 | 0.00 | 47 | 1014.6 |
| 20260503194316 | 58 | 220 | 0.0 | 5.0 | 0.00 | 0.00 | 0.00 | 48 | 1014.6 |
| 20260503131344 | 43 | 259 | 0.0 | 1.0 | 0.00 | 0.00 | 0.00 | 74 | 1017.5 |
| 20260503130845 | 42 | 281 | 0.0 | 1.0 | 0.00 | 0.00 | 0.00 | 73 | 1017.6 |
| 20260503130325 | 42 | 267 | 0.0 | 0.0 | 0.00 | 0.00 | 0.00 | 75 | 1017.5 |
| 20260503071312 | 36 | 244 | 0.0 | 0.0 | 0.00 | 0.01 | 0.00 | 88 | 1015.7 |
| 20260503070814 | 36 | 244 | 0.0 | 0.0 | 0.00 | 0.01 | 0.00 | 87 | 1015.8 |
| 20260503070315 | 36 | 244 | 0.0 | 0.0 | 0.00 | 0.01 | 0.00 | 87 | 1015.8 |
| 20260503054818 | 35 | 292 | 0.0 | 0.0 | 0.00 | 0.01 | 0.00 | 83 | 1015.9 |
| 20260503054319 | 35 | 292 | 0.0 | 0.0 | 0.00 | 0.01 | 0.00 | 83 | 1015.9 |
| 20260503053822 | 36 | 292 | 0.0 | 0.0 | 0.00 | 0.01 | 0.00 | 83 | 1015.9 |
| 20260503053322 | 36 | 292 | 0.0 | 0.0 | 0.00 | 0.01 | 0.00 | 82 | 1015.9 |
| 20260503052823 | 36 | 292 | 0.0 | 0.0 | 0.00 | 0.01 | 0.00 | 82 | 1016.0 |
| 20260503052326 | 36 | 292 | 0.0 | 0.0 | 0.00 | 0.01 | 0.00 | 82 | 1016.0 |
| 20260503051848 | 36 | 292 | 0.0 | 0.0 | 0.00 | 0.01 | 0.00 | 82 | 1016.0 |
| 20260503051349 | 36 | 292 | 0.0 | 0.0 | 0.00 | 0.01 | 0.00 | 82 | 1016.0 |
| 20260503050812 | 36 | 292 | 0.0 | 0.0 | 0.00 | 0.01 | 0.00 | 82 | 1016.1 |
| 20260503050312 | 36 | 292 | 0.0 | 0.0 | 0.00 | 0.01 | 0.00 | 81 | 1016.2 |
| 20260503045813 | 36 | 292 | 0.0 | 0.0 | 0.00 | 0.01 | 0.00 | 81 | 1016.2 |
| 20260503045316 | 37 | 292 | 0.0 | 0.0 | 0.00 | 0.01 | 0.00 | 81 | 1016.2 |
| 20260503044818 | 37 | 292 | 0.0 | 0.0 | 0.00 | 0.01 | 0.00 | 81 | 1016.2 |
| 20260503044320 | 37 | 292 | 0.0 | 0.0 | 0.00 | 0.01 | 0.00 | 80 | 1016.1 |
| 20260503043822 | 37 | 292 | 0.0 | 0.0 | 0.00 | 0.01 | 0.00 | 79 | 1016.1 |
| 20260503043323 | 37 | 292 | 0.0 | 0.0 | 0.00 | 0.01 | 0.00 | 79 | 1016.2 |
| 20260503042824 | 37 | 292 | 0.0 | 0.0 | 0.00 | 0.01 | 0.00 | 79 | 1016.2 |
| 20260503042324 | 37 | 293 | 0.0 | 0.0 | 0.00 | 0.01 | 0.00 | 79 | 1016.3 |